Voltar ao catálogo

STARLINK-30832

AtivoComunicaçõesVLEO
NORAD 58354·PAYLOAD·🇺🇸 United States

Lançado Nov 18, 2023 de Cape Canaveral Space Force Station

Loading…

Próximas Passagens (próximas 24 horas)

TLE

AtualizadoSource: CelesTrak SupGP

Época: Sep 14, 2026, 21:05 UTC

1 58354C 23177D   26257.87895833 -.00045084  00000+0 -16326-2 0  2577
2 58354  43.0035   2.6767 0001543 267.2392 156.5360 15.27606641    19

Acompanhe STARLINK-30832 em tempo real com AllMySat

Download on the App Store